Location: Unspecified
(52.1384°N, 8.6525°W)
Time: 12:40:56
(UTC+00:00)

Envisat - Visible Passes

Search period start: 28 October 2020 00:00
Search period end: 07 November 2020 00:00
Orbit: 764 x 766 km, 98.1° (Epoch: 28 October)

Date Brightness Start Highest point End Pass type
(mag) Time Alt. Az. Time Alt. Az. Time Alt. Az.
28 Oct 4.0 06:22:08 10° NNE 06:27:07 52° E 06:32:04 10° S visible
28 Oct 3.4 17:42:18 10° S 17:47:22 71° WSW 17:52:29 10° NNW visible
28 Oct 6.4 19:25:30 10° WSW 19:27:21 12° W 19:29:11 10° WNW visible
29 Oct 5.3 05:45:44 10° NE 05:50:04 27° E 05:54:21 10° SSE visible
29 Oct 5.6 18:46:00 10° SW 18:50:01 23° W 18:54:03 10° NW visible
30 Oct 6.3 05:10:07 10° NE 05:12:47 14° E 05:15:26 10° ESE visible
30 Oct 3.2 06:47:30 10° NNE 06:52:38 83° ESE 06:57:42 10° SSW visible
30 Oct 4.3 18:08:03 10° S 18:12:54 44° W 18:17:47 10° NNW visible
31 Oct 4.4 06:10:50 10° NNE 06:15:41 43° E 06:20:31 10° S visible
31 Oct 6.2 19:13:00 10° WSW 19:15:47 15° W 19:18:36 10° NW visible
01 Nov 5.6 05:34:35 10° NE 05:38:34 22° E 05:42:31 10° SE visible
01 Nov 5.2 18:34:10 10° SSW 18:38:32 28° W 18:42:55 10° NNW visible
02 Nov 6.4 04:59:39 10° ENE 05:01:13 11° E 05:02:48 10° E visible
02 Nov 3.4 06:36:08 10° NNE 06:41:14 69° ESE 06:46:18 10° S visible
02 Nov 3.9 17:56:30 10° S 18:01:29 54° W 18:06:28 10° NNW visible
03 Nov 4.8 05:59:34 10° NNE 06:04:15 35° E 06:08:53 10° SSE visible
03 Nov 6.0 19:00:50 10° SW 19:04:16 18° W 19:07:42 10° NW visible
04 Nov 5.9 05:23:32 10° NE 05:27:03 19° E 05:30:34 10° SE visible
04 Nov 4.9 18:22:27 10° SSW 18:27:03 34° W 18:31:41 10° NNW visible
05 Nov 3.8 06:24:48 10° NNE 06:29:50 56° E 06:34:49 10° S visible
05 Nov 3.5 17:45:01 10° S 17:50:03 66° WSW 17:55:09 10° NNW visible
05 Nov 6.5 19:28:48 10° W 19:30:05 11° W 19:31:23 10° WNW visible
06 Nov 5.1 05:48:21 10° NNE 05:52:47 29° E 05:57:10 10° SSE visible
06 Nov 5.7 18:48:51 10° SW 18:52:44 22° W 18:56:39 10° NW visible
